W7KKE-3 Weather Reports


time (UTC)temp
C
wind
direction
speed
KPH
gust
KPH
rain 1hr
cm
rain 24hr
cm
rain mn
cm
humidity
%
barometer
mb
20260510225653 17 320 11.3 22.5 0.00 0.00 0.00 72 1017.6
20260510225152 17 327 12.9 22.5 0.00 0.00 0.00 72 1017.5
20260510224652 17 324 9.7 22.5 0.00 0.00 0.00 72 1017.6
20260510224154 17 333 16.1 20.9 0.00 0.00 0.00 71 1017.6
20260510223652 17 336 14.5 20.9 0.00 0.00 0.00 71 1017.6
20260510223152 17 326 14.5 19.3 0.00 0.00 0.00 70 1017.6
20260510222152 17 330 14.5 24.1 0.00 0.00 0.00 71 1017.7
20260510221652 17 344 14.5 24.1 0.00 0.00 0.00 70 1017.8
20260510221154 18 347 11.3 22.5 0.00 0.00 0.00 71 1017.8
20260510220650 18 313 11.3 20.9 0.00 0.00 0.00 70 1017.9
20260510220152 18 309 12.9 20.9 0.00 0.00 0.00 70 1017.9
20260510215152 18 310 12.9 20.9 0.00 0.00 0.00 70 1017.8
20260510214651 18 306 9.7 19.3 0.00 0.00 0.00 70 1017.8
20260510214154 18 303 9.7 19.3 0.00 0.00 0.00 69 1017.7
20260510213651 18 302 9.7 19.3 0.00 0.00 0.00 70 1017.7
20260510213151 18 315 11.3 19.3 0.00 0.00 0.00 70 1017.7
20260510212653 18 301 9.7 14.5 0.00 0.00 0.00 69 1017.6
20260510212151 18 285 9.7 19.3 0.00 0.00 0.00 70 1017.6
20260510211652 18 308 11.3 19.3 0.00 0.00 0.00 70 1017.5
20260510211154 18 329 9.7 19.3 0.00 0.00 0.00 70 1017.6
20260510210650 18 334 14.5 20.9 0.00 0.00 0.00 69 1017.6
20260510210151 18 323 11.3 20.9 0.00 0.00 0.00 69 1017.6
20260510205653 18 326 12.9 20.9 0.00 0.00 0.00 70 1017.8
20260510205151 18 329 14.5 20.9 0.00 0.00 0.00 70 1017.8
20260510204652 18 330 14.5 20.9 0.00 0.00 0.00 69 1017.9
20260510204154 19 9 14.5 20.9 0.00 0.00 0.00 70 1017.9
20260510203651 19 340 11.3 20.9 0.00 0.00 0.00 70 1017.8
20260510203154 19 324 11.3 20.9 0.00 0.00 0.00 70 1017.8
20260510202653 19 334 16.1 20.9 0.00 0.00 0.00 70 1017.7
20260510202150 19 334 12.9 22.5 0.00 0.00 0.00 70 1017.6
20260510201651 19 330 14.5 22.5 0.00 0.00 0.00 70 1017.6
20260510201154 19 341 11.3 22.5 0.00 0.00 0.00 69 1017.6
20260510200151 19 334 12.9 20.9 0.00 0.00 0.00 71 1017.6
20260510195151 19 336 14.5 20.9 0.00 0.00 0.00 70 1017.7
20260510194651 19 281 11.3 19.3 0.00 0.00 0.00 70 1017.7
20260510194154 18 334 9.7 20.9 0.00 0.00 0.00 71 1017.6
20260510193651 18 296 11.3 20.9 0.00 0.00 0.00 70 1017.4
20260510193151 18 305 14.5 20.9 0.00 0.00 0.00 70 1017.3
20260510192653 19 323 11.3 16.1 0.00 0.00 0.00 71 1017.2
20260510192151 18 340 9.7 16.1 0.00 0.00 0.00 71 1017.2
20260510191651 18 294 9.7 16.1 0.00 0.00 0.00 72 1017.2
20260510191153 18 284 8.0 16.1 0.00 0.00 0.00 72 1017.1
20260510190651 18 305 9.7 14.5 0.00 0.00 0.00 72 1017.1
20260510190151 18 277 8.0 14.5 0.00 0.00 0.00 71 1017.0
20260510185653 18 326 9.7 14.5 0.00 0.00 0.00 71 1016.9
20260510185150 18 340 8.0 17.7 0.00 0.00 0.00 72 1016.9
20260510184651 18 316 9.7 17.7 0.00 0.00 0.00 72 1016.8
20260510184151 18 313 11.3 17.7 0.00 0.00 0.00 73 1016.7
20260510183651 18 320 11.3 16.1 0.00 0.00 0.00 73 1016.6
20260510183151 17 301 9.7 16.1 0.00 0.00 0.00 74 1016.5
20260510182651 17 313 8.0 11.3 0.00 0.00 0.00 74 1016.6
20260510182151 16 309 6.4 12.9 0.00 0.00 0.00 76 1016.7
20260510181653 16 333 6.4 12.9 0.00 0.00 0.00 78 1016.9
20260510181154 15 301 6.4 12.9 0.00 0.00 0.00 79 1016.8
20260510180651 15 357 9.7 9.7 0.00 0.00 0.00 78 1016.8
20260510180151 14 320 6.4 16.1 0.00 0.00 0.00 78 1016.5
20260510175150 14 317 11.3 16.1 0.00 0.00 0.00 78 1016.7
20260510174651 14 330 11.3 19.3 0.00 0.00 0.00 78 1016.7
20260510174153 14 331 11.3 19.3 0.00 0.00 0.00 78 1016.8
20260510173651 14 317 11.3 19.3 0.00 0.00 0.00 78 1016.7
20260510173151 14 329 12.9 17.7 0.00 0.00 0.00 77 1016.5
20260510172652 14 303 9.7 17.7 0.00 0.00 0.00 78 1016.5
20260510172151 14 326 9.7 17.7 0.00 0.00 0.00 78 1016.1
20260510171651 15 333 11.3 19.3 0.00 0.00 0.00 77 1016.3
20260510171153 15 334 14.5 19.3 0.00 0.00 0.00 77 1016.4
20260510170651 15 336 11.3 19.3 0.00 0.00 0.00 77 1016.5
20260510170151 15 344 14.5 19.3 0.00 0.00 0.00 76 1016.3
20260510165654 15 324 11.3 17.7 0.00 0.00 0.00 76 1016.3
20260510165151 15 323 11.3 17.7 0.00 0.00 0.00 76 1016.1
20260510164651 15 337 11.3 16.1 0.00 0.00 0.00 76 1016.1
20260510164153 16 324 9.7 19.3 0.00 0.00 0.00 76 1016.1
20260510163651 15 317 9.7 19.3 0.00 0.00 0.00 76 1016.3
20260510163151 15 341 11.3 19.3 0.00 0.00 0.00 79 1016.3
20260510162652 15 309 11.3 17.7 0.00 0.00 0.00 79 1016.2
20260510162151 14 338 8.0 17.7 0.00 0.00 0.00 80 1016.1
20260510161652 14 343 6.4 17.7 0.00 0.00 0.00 80 1015.8
20260510161153 14 351 8.0 16.1 0.00 0.00 0.00 80 1015.8
20260510160151 14 330 8.0 16.1 0.00 0.00 0.00 80 1015.8
20260510155652 14 317 9.7 16.1 0.00 0.00 0.00 80 1016.0
20260510155151 14 313 8.0 16.1 0.00 0.00 0.00 80 1015.9
20260510154652 14 310 12.9 16.1 0.00 0.00 0.00 80 1015.8
20260510154153 14 337 8.0 16.1 0.00 0.00 0.00 80 1015.7
20260510153651 13 330 8.0 14.5 0.00 0.00 0.00 81 1015.7
20260510153151 13 340 9.7 14.5 0.00 0.00 0.00 81 1015.7
20260510151651 13 308 6.4 12.9 0.00 0.00 0.00 82 1015.4
20260510150651 13 338 1.6 16.1 0.00 0.00 0.00 81 1015.3
20260510150150 13 5 6.4 16.1 0.00 0.00 0.00 82 1015.2
20260510145651 13 323 8.0 16.1 0.00 0.00 0.00 81 1015.2
20260510145151 13 334 9.7 16.1 0.00 0.00 0.00 81 1015.3
20260510144650 13 348 6.4 16.1 0.00 0.00 0.00 81 1015.3
20260510144153 13 347 3.2 14.5 0.00 0.00 0.00 81 1015.2
20260510143651 13 330 6.4 14.5 0.00 0.00 0.00 81 1015.3
20260510143151 13 1 6.4 14.5 0.00 0.00 0.00 82 1015.1
20260510142652 12 352 6.4 14.5 0.00 0.00 0.00 82 1015.0
20260510142151 12 340 6.4 14.5 0.00 0.00 0.00 81 1015.0
20260510141651 12 317 8.0 12.9 0.00 0.00 0.00 81 1015.0
20260510140650 12 331 4.8 12.9 0.00 0.00 0.00 81 1015.1
20260510140151 12 2 8.0 11.3 0.00 0.00 0.00 81 1014.9
20260510135652 12 350 3.2 8.0 0.00 0.00 0.00 81 1014.8
20260510135205 12 357 3.2 9.7 0.00 0.00 0.00 81 1014.9
20260510135151 12 338 0.0 8.0 0.00 0.00 0.00 81 1014.5
20260510134651 12 316 0.0 8.0 0.00 0.00 0.00 81 1014.6
20260510134153 12 341 3.2 9.7 0.00 0.00 0.00 81 1014.6
20260510133651 12 357 3.2 9.7 0.00 0.00 0.00 81 1014.9
20260510133152 12 4 4.8 9.7 0.00 0.00 0.00 81 1014.8
20260510132151 12 183 1.6 1.6 0.00 0.00 0.00 81 1014.6
20260510131653 12 355 0.0 12.9 0.00 0.00 0.00 81 1014.5
20260510131153 12 336 0.0 12.9 0.00 0.00 0.00 81 1014.5
20260510130651 12 340 6.4 12.9 0.00 0.00 0.00 80 1014.4
20260510130151 12 320 4.8 8.0 0.00 0.00 0.00 80 1014.5
20260510125652 12 337 0.0 11.3 0.00 0.00 0.00 80 1014.5
20260510124653 12 340 1.6 11.3 0.00 0.00 0.00 80 1014.7
20260510124153 12 345 4.8 6.4 0.00 0.00 0.00 80 1014.4
20260510123651 12 322 0.0 12.9 0.00 0.00 0.00 80 1014.5
20260510123151 12 343 3.2 12.9 0.00 0.00 0.00 80 1014.4
20260510122652 12 352 6.4 12.9 0.00 0.00 0.00 80 1013.9
20260510122151 12 354 6.4 11.3 0.00 0.00 0.00 80 1014.2
20260510121651 12 11 3.2 11.3 0.00 0.00 0.00 80 1014.5
20260510121153 13 340 4.8 9.7 0.00 0.00 0.00 80 1014.5
20260510120651 13 12 0.0 11.3 0.00 0.00 0.00 80 1014.5
20260510120152 13 323 0.0 11.3 0.00 0.00 0.00 80 1014.4
20260510115651 13 350 1.6 11.3 0.00 0.00 0.00 80 1014.5
20260510115151 13 322 1.6 9.7 0.00 0.00 0.00 80 1014.7
20260510114153 13 344 6.4 12.9 0.00 0.00 0.00 80 1014.7
20260510113651 13 320 1.6 12.9 0.00 0.00 0.00 80 1014.4
20260510112652 13 344 0.0 11.3 0.00 0.00 0.00 80 1014.7
20260510112151 13 322 6.4 16.1 0.00 0.00 0.00 81 1014.5
20260510111651 13 334 3.2 16.1 0.00 0.00 0.00 81 1014.7
20260510111153 13 4 6.4 16.1 0.00 0.00 0.00 81 1014.7
20260510110651 13 331 6.4 6.4 0.00 0.00 0.00 81 1014.8
20260510105652 13 313 4.8 16.1 0.00 0.00 0.00 81 1014.8
20260510105151 13 2 8.0 16.1 0.00 0.00 0.00 81 1014.8
20260510104651 13 355 4.8 12.9 0.00 0.00 0.00 81 1014.9
20260510104151 13 0 4.8 16.1 0.00 0.00 0.00 81 1014.8
20260510103651 13 344 6.4 16.1 0.00 0.00 0.00 82 1014.7
20260510103150 13 320 9.7 16.1 0.00 0.00 0.00 82 1014.8
20260510102650 13 350 6.4 14.5 0.00 0.00 0.00 82 1014.8
20260510102151 13 303 8.0 16.1 0.00 0.00 0.00 82 1014.9
20260510101650 13 324 4.8 16.1 0.00 0.00 0.00 81 1014.9
20260510101155 13 11 6.4 16.1 0.00 0.00 0.00 82 1014.8
20260510100651 13 322 4.8 14.5 0.00 0.00 0.00 82 1014.3
20260510100151 13 327 9.7 14.5 0.00 0.00 0.00 82 1014.3
20260510095151 13 312 6.4 12.9 0.00 0.00 0.00 81 1014.7
20260510094651 13 331 4.8 16.1 0.00 0.00 0.00 81 1014.6
20260510094153 13 4 6.4 16.1 0.00 0.00 0.00 81 1014.5
20260510093651 13 319 6.4 16.1 0.00 0.00 0.00 81 1014.4
20260510092652 13 315 8.0 16.1 0.00 0.00 0.00 81 1014.4
20260510092150 13 333 4.8 16.1 0.00 0.00 0.00 81 1014.4
20260510091153 13 333 6.4 22.5 0.00 0.00 0.00 81 1014.6
20260510090651 13 329 9.7 22.5 0.00 0.00 0.00 81 1014.6
20260510090151 13 320 6.4 22.5 0.00 0.00 0.00 81 1014.6
20260510085652 13 320 14.5 19.3 0.00 0.00 0.00 81 1014.5
20260510085152 13 8 4.8 9.7 0.00 0.00 0.00 81 1014.3
20260510084651 13 16 3.2 9.7 0.00 0.00 0.00 81 1014.3
20260510084153 13 316 1.6 17.7 0.00 0.00 0.00 81 1014.2
20260510083651 13 326 0.0 17.7 0.00 0.00 0.00 81 1014.2
20260510083151 13 337 8.0 17.7 0.00 0.00 0.00 81 1014.4
20260510082652 13 315 8.0 25.7 0.00 0.00 0.00 81 1014.5
20260510082151 13 347 9.7 25.7 0.00 0.00 0.00 81 1014.6
20260510081651 13 341 12.9 25.7 0.00 0.00 0.00 81 1014.6
20260510081153 13 344 16.1 16.1 0.00 0.00 0.00 81 1014.6
20260510080651 13 320 3.2 11.3 0.00 0.00 0.00 81 1014.5
20260510080151 13 323 1.6 19.3 0.00 0.00 0.00 81 1014.5
20260510075652 13 324 6.4 19.3 0.00 0.00 0.00 81 1014.5
20260510075151 13 330 6.4 19.3 0.00 0.00 0.00 81 1014.5
20260510074651 13 320 11.3 20.9 0.00 0.00 0.00 81 1014.3
20260510074153 13 323 9.7 20.9 0.00 0.00 0.00 81 1014.3
20260510073652 13 278 11.3 20.9 0.00 0.00 0.00 81 1014.2
20260510072652 13 336 11.3 17.7 0.00 0.00 0.00 81 1014.1
20260510072151 13 334 11.3 16.1 0.00 0.00 0.00 81 1014.1
20260510071651 13 351 11.3 16.1 0.00 0.00 0.00 81 1014.1
20260510071153 13 316 4.8 16.1 0.00 0.00 0.00 81 1014.2
20260510070650 13 327 3.2 14.5 0.00 0.00 0.00 81 1014.2
20260510070151 13 310 9.7 25.7 0.00 0.00 0.00 81 1014.1
20260510065652 13 340 12.9 25.7 0.00 0.00 0.00 81 1014.1
20260510064651 13 355 14.5 19.3 0.00 0.00 0.00 81 1014.1
20260510063651 13 323 9.7 19.3 0.00 0.00 0.00 81 1014.1
20260510063151 13 316 11.3 19.3 0.00 0.00 0.00 81 1014.1
20260510062652 13 337 12.9 19.3 0.00 0.00 0.00 81 1014.1
20260510062151 13 322 9.7 17.7 0.00 0.00 0.00 81 1014.1
20260510061651 13 316 12.9 17.7 0.00 0.00 0.00 81 1014.0
20260510061153 13 316 6.4 17.7 0.00 0.00 0.00 81 1014.1
20260510060651 13 323 9.7 14.5 0.00 0.00 0.00 81 1014.1
20260510060151 13 352 6.4 14.5 0.00 0.00 0.00 81 1014.1
20260510055650 13 320 6.4 12.9 0.00 0.00 0.00 81 1014.1
20260510055151 13 306 8.0 24.1 0.00 0.00 0.00 81 1014.2
20260510054651 13 324 8.0 24.1 0.00 0.00 0.00 81 1014.3
20260510054153 13 340 6.4 24.1 0.00 0.00 0.00 81 1014.2
20260510053650 13 326 14.5 27.4 0.00 0.00 0.00 81 1014.2
20260510053151 13 309 12.9 27.4 0.00 0.00 0.00 81 1014.3
20260510052652 14 315 12.9 27.4 0.00 0.00 0.00 81 1014.2
20260510052151 13 308 14.5 25.7 0.00 0.00 0.00 81 1014.2
20260510051651 13 337 14.5 25.7 0.00 0.00 0.00 81 1014.2
20260510051153 14 313 11.3 24.1 0.00 0.00 0.00 81 1014.2
20260510050651 14 351 12.9 22.5 0.00 0.00 0.00 81 1014.1
20260510050153 14 299 9.7 22.5 0.00 0.00 0.00 81 1014.2
20260510045151 14 334 16.1 17.7 0.00 0.00 0.00 81 1014.0
20260510044650 14 336 12.9 19.3 0.00 0.00 0.00 81 1013.9
20260510044151 14 322 14.5 19.3 0.00 0.00 0.00 81 1013.9
20260510043651 14 327 9.7 19.3 0.00 0.00 0.00 81 1013.8
20260510043151 14 313 12.9 22.5 0.00 0.00 0.00 81 1013.7
20260510042650 14 327 11.3 22.5 0.00 0.00 0.00 81 1013.7
20260510042151 14 303 14.5 22.5 0.00 0.00 0.00 81 1013.7
20260510041743 14 317 14.5 22.5 0.00 0.00 0.00 81 1013.7
20260510041651 14 317 14.5 22.5 0.00 0.00 0.00 81 1013.7
20260510041153 14 316 9.7 22.5 0.00 0.00 0.00 81 1013.5
20260510040651 14 319 11.3 22.5 0.00 0.00 0.00 81 1013.5
20260510040150 14 327 9.7 24.1 0.00 0.00 0.00 81 1013.4
20260510035151 14 324 14.5 24.1 0.00 0.00 0.00 81 1013.3
20260510034650 14 347 16.1 25.7 0.00 0.00 0.00 81 1013.2
20260510034153 14 309 12.9 25.7 0.00 0.00 0.00 81 1013.1
20260510033650 14 322 14.5 25.7 0.00 0.00 0.00 80 1013.0
20260510033151 14 330 12.9 24.1 0.00 0.00 0.00 80 1013.0
20260510032650 14 347 12.9 24.1 0.00 0.00 0.00 80 1012.9
20260510032151 14 323 14.5 24.1 0.00 0.00 0.00 80 1012.8
20260510031650 14 298 14.5 29.0 0.00 0.00 0.00 80 1012.8
20260510031153 14 320 16.1 29.0 0.00 0.00 0.00 79 1012.7
20260510030650 14 330 12.9 29.0 0.00 0.00 0.00 79 1012.7
20260510030151 14 320 14.5 24.1 0.00 0.00 0.00 79 1012.6
20260510025652 15 315 14.5 24.1 0.00 0.00 0.00 79 1012.6
20260510025151 15 330 12.9 20.9 0.00 0.00 0.00 79 1012.5
20260510024650 15 326 12.9 30.6 0.00 0.00 0.00 79 1012.4
20260510024151 15 308 12.9 30.6 0.00 0.00 0.00 79 1012.4
20260510023650 15 320 16.1 30.6 0.00 0.00 0.00 79 1012.4
20260510023151 15 337 17.7 29.0 0.00 0.00 0.00 78 1012.5
20260510022845 15 338 17.7 32.2 0.00 0.00 0.00 77 1012.7
20260510022151 15 316 20.9 30.6 0.00 0.00 0.00 78 1012.6
20260510021650 15 324 17.7 30.6 0.00 0.00 0.00 77 1012.6
20260510021153 15 350 20.9 32.2 0.00 0.00 0.00 77 1012.7
20260510020650 15 338 17.7 32.2 0.00 0.00 0.00 77 1012.7
20260510020151 16 316 20.9 32.2 0.00 0.00 0.00 76 1012.7
20260510015151 16 326 20.9 30.6 0.00 0.00 0.00 76 1012.5
20260510014650 16 333 16.1 30.6 0.00 0.00 0.00 75 1012.7
20260510014151 16 322 16.1 30.6 0.00 0.00 0.00 75 1012.6
20260510013650 16 316 19.3 30.6 0.00 0.00 0.00 74 1012.7
20260510013150 16 344 19.3 30.6 0.00 0.00 0.00 74 1012.6
20260510012650 16 320 14.5 30.6 0.00 0.00 0.00 74 1012.6
20260510012151 16 285 16.1 30.6 0.00 0.00 0.00 74 1012.6
20260510011650 16 331 19.3 32.2 0.00 0.00 0.00 73 1012.6
20260510011151 17 324 16.1 32.2 0.00 0.00 0.00 73 1012.7
20260510010650 17 341 16.1 32.2 0.00 0.00 0.00 72 1012.7
20260510010150 17 312 16.1 24.1 0.00 0.00 0.00 72 1012.7
20260510005650 17 310 12.9 22.5 0.00 0.00 0.00 72 1012.7
20260510005150 17 331 16.1 30.6 0.00 0.00 0.00 72 1012.7
20260510004650 17 336 16.1 30.6 0.00 0.00 0.00 72 1012.6
20260510004151 17 324 17.7 30.6 0.00 0.00 0.00 71 1012.6
20260510003650 17 313 16.1 32.2 0.00 0.00 0.00 70 1012.7
20260510003151 17 319 16.1 32.2 0.00 0.00 0.00 70 1012.7
20260510002650 17 330 20.9 32.2 0.00 0.00 0.00 69 1012.7
20260510002150 17 319 19.3 32.2 0.00 0.00 0.00 68 1012.7
20260510001650 18 329 19.3 32.2 0.00 0.00 0.00 67 1012.7
20260510001201 18 310 19.3 33.8 0.00 0.00 0.00 67 1012.6
20260510001151 18 310 19.3 33.8 0.00 0.00 0.00 67 1012.6
20260510000651 18 324 17.7 33.8 0.00 0.00 0.00 67 1012.7
20260510000150 18 315 19.3 33.8 0.00 0.00 0.00 67 1012.5
20260509235650 18 319 19.3 30.6 0.00 0.00 0.00 68 1012.6
20260509235151 18 316 17.7 30.6 0.00 0.00 0.00 68 1012.6
20260509234650 17 326 16.1 30.6 0.00 0.00 0.00 69 1012.6
20260509234151 17 345 22.5 35.4 0.00 0.00 0.00 69 1012.6
20260509233650 17 323 20.9 35.4 0.00 0.00 0.00 70 1012.6
20260509233152 17 305 19.3 35.4 0.00 0.00 0.00 71 1012.6
20260509232150 17 331 17.7 37.0 0.00 0.00 0.00 72 1012.7
20260509231650 17 326 19.3 37.0 0.00 0.00 0.00 72 1012.8
20260509231154 17 319 20.9 37.0 0.00 0.00 0.00 72 1012.8
20260509230650 17 322 22.5 35.4 0.00 0.00 0.00 72 1013.0
20260509230150 17 330 24.1 33.8 0.00 0.00 0.00 71 1013.1